DELTA 1 DEB, 7142

Orbit data source: Space-Track

DELTA 1 DEB, 7142 is space debris in SSO originally from a launch on Tue, 06 Nov 1973 UTC launched from the Air Force Western Test Range (AFWTR). Debris objects in space refer to the collection of defunct objects orbiting the Earth. Examples of debris include non-operational satellites, rocket bodies, and fragments generated from explosions, collisions, or faulty payload assembly.

Loading next visibility...
Identifier
7142, 1973-086DG
Orbit
SSO
Country
Flag of USUS
Related business
Manufacturer
Unknown
Mission
Spacecraft
Bus & Motor
Unknown
Mass
Unknown
Launch date (UTC)
1973-11-06 (53 years ago)
Launch vehicle
Unknown
Launch site
Air Force Western Test Range (AFWTR)
Object type
Payload
Rocket body
Debris
Shape & HBR
Unknown shape, 0.3 m
Radar Cross Section
Medium (>0.1 m² and <1 m²)

Expand to show TLE details & history
Last TLE update: 1 day ago

TLE from 1 day ago
0 DELTA 1 DEB
1 07142U 73086DG  26206.40381197  .00000021  00000-0  52409-3 0  9993
2 07142 101.8403 175.2671 0044577 315.7053 200.3535 12.32088387370227
Epoch: 2026-07-25T09:41Z
TLE epoch observation values (Epoch: 2026-07-25T09:41:29.354Z)
Latitude
23.59514°
Longitude
-87.99335°
Altitude
1,575.968 km
Speed
7.067 km/s
True Right ascension
00h 01m 58s
True Declination
23° 28' 56"
Sunlit
Object was in daylight at epoch
Visualization orbit readout
Latitude
Unknown
Longitude
Unknown
Altitude
Unknown
Speed
Unknown
Apparent Right ascension
Unknown
Apparent Declination
Unknown
Sunlit
N/A
Visualization observer readout
Local Sidereal Time
23:15:55
Azimuth
Unknown
Elevation
Unknown
Doppler factor
Unknown
Orbital elements
Apogee altitude
1,573.184 km
Perigee altitude
1,502.609 km
Semi-major axis
7,916.033 km
Eccentricity
0.00446
Inclination
101.8403°
RAAN
175.2671°
Arg. of periapsis
315.7053°
True anomaly
200.17676°
Mean anomaly
200.3535°
Eccentric anomaly
200.26504°
Mean motion
3.08164 °/min
Orbital period
116.82 mins
BSTAR
0.00052409
Loading maneuver chart data...
Computing Atmospheric mass density...
Loading historical data...
Loading historical data...
Loading historical data...
Loading historical data...
Loading historical data...
Loading historical data...
Loading historical data...

Documentation

Showing up to 5 results
|